DECAYED
Showing default

SOCRAT, 44414 (Decayed)

Orbit data source: Space-Track

SOCRAT, 44414 was a payload satellite owned by EXOLaunch (CIS) in LEO that was launched on Fri, 05 Jul 2019 UTC via a SOYUZ-2-1B launch vehicle from the Vostochny Cosmodrome (VOSTO). Payload-class satellites include a variety of spacecraft equipped with specific instruments for various scientific and technological missions. These include communications satellites like Starlink; space stations such as the ISS; scientific satellites like the Hubble; Earth observation satellites from companies like Planet Labs, Umbra, and HawkEye 360; GPS; miniature CubeSats for education and research; and military/defense satellites.

Not visible in the next 10 days
Identifier
44414, 2019-038AE
Orbit
Decayed
Country
Flag of CISCIS
Related business
Manufacturer
EXOLaunch
Mission
Decayed Commercial Technology
Bus & Motor
EXOL, Unknown motor
Mass
30 kg wet, 30 kg dry
Launch date (UTC)
2019-07-05 (6 years ago)
Launch vehicle
SOYUZ-2-1B
Launch site
Vostochny Cosmodrome (VOSTO)
Object type
Payload
Rocket body
Debris
Shape & HBR
Box, 0.1 m
Radar Cross Section
0.015 m², Medium (>0.1 m² and < 1m²)

Expand to show TLE details & history
Last TLE update: 5 months ago

TLE from 5 months ago
0 SOCRAT
1 44414U 19038AE  25116.33765021  .05391447  26880-5  96447-3 0  9995
2 44414  97.6603 142.3541 0007336 239.0957 120.9617 16.32586875322402
Epoch: 2025-04-26T08:06Z
TLE epoch observation values (Epoch: 2025-04-26T08:06:12.978Z)
Latitude
0.00001°
Longitude
166.2182°
Altitude
191.311 km
Speed
7.79 km/s
True Right ascension
09h 29m 24s
True Declination
0° 00' 00"
Sunlit
Object was in full shadow at epoch
Visualization orbit readout
Latitude
Unknown
Longitude
Unknown
Altitude
Unknown
Speed
Unknown
Apparent Right ascension
Unknown
Apparent Declination
Unknown
Sunlit
N/A
Visualization observer readout
Local Sidereal Time
20:48:27
Azimuth
Unknown
Elevation
Unknown
Doppler factor
Unknown
Orbital elements
Apogee altitude
187.239 km
Perigee altitude
177.613 km
Semi-major axis
6,560.563 km
Eccentricity
0.00073
Inclination
97.6603°
RAAN
142.3541°
Arg. of periapsis
239.0957°
True anomaly
121.03375°
Mean anomaly
120.9617°
Eccentric anomaly
120.99773°
Mean motion
4.08443 °/min
Orbital period
88.14 mins
BSTAR
0.00096447
Loading maneuver chart data...
Computing Atmospheric mass density...

Documentation

Showing up to 5 results
|